Header for Extended Forecast Station List Page

Search by: ID | Name | Date | Parm | Value | Avg | % Avg
Sort by: ID | Name | Date | Parm | Value | Avg | % Avg

Enter search or view all records.

Click on id for station plot
#IDNameDateParmValueAvg% Avg
0ABOM8CLARK FORK-ABOVE MISSOULA02-11-2019DISCHARGE (KAF)883103485
1AFRI1SNAKE-AMERICAN FALLS RESERVOIR02-11-2019INFLOW (KAF)1749222079
2ALFW1PEND OREILLE-ALBENI FALLS DAM02-11-2019INFLOW (KAF)6009874569
3ALPW4SNAKE-NEAR ALPINE02-11-2019DISCHARGE (KAF)998109491
4ANAW1SNAKE-NEAR ANATONE02-11-2019DISCHARGE (KAF)84571168072
5ANTI1HENRYS FORK-AT ST. ANTHONY02-11-2019DISCHARGE (KAF)577576100
6ARAI1SF BOISE-ANDERSON RANCH DAM02-11-2019INFLOW (KAF)31740478
7ARDW1ENTIAT-NEAR ARDENVOIR02-11-2019DISCHARGE (KAF)8911974
8BELM8CLARK FORK-BELOW MISSOULA02-11-2019DISCHARGE (KAF)1559187683
9BERO3MALHEUR-AGENCY VALLEY DAM02-11-2019INFLOW (KAF)325262
10BFEI1KOOTENAI-AT BONNERS FERRY02-11-2019STAGE (FT)MMM
11BFTI1SNAKE-NEAR BLACKFOOT02-11-2019DISCHARGE (KAF)1155152876
12BIGI1BOISE-AT GLENWOOD BRIDGE02-11-2019DISCHARGE (KAF)32432998
13BITM8BITTERROOT-NEAR MISSOULA02-11-2019DISCHARGE (KAF)67682282
14BONM8BLACKFOOT-NEAR BONNER02-11-2019DISCHARGE (KAF)49756189
15BONO3COLUMBIA-BONNEVILLE DAM02-11-2019INFLOW (KAF)411625459875
16BRNI1SNAKE-BROWNLEE DAM02-11-2019INFLOW (KAF)4501572979
17BUDW1BUMPING-BUMPING LAKE DAM02-11-2019INFLOW (KAF)858599
18BULO3BULLY CREEK-BULLY CREEK DAM02-11-2019INFLOW (KAF)229248
19CABI1CLARK FORK-CABINET GORGE DAM02-11-2019INFLOW (KAF)4836721667
20CFMM8FLATHEAD-AT COLUMBIA FALLS02-11-2019DISCHARGE (KAF)2115290373
21CHDW1CHELAN-LAKE CHELAN DAM02-11-2019INFLOW (KAF)48661879
22CHEI1FALL RIVER-NEAR CHESTER02-11-2019DISCHARGE (KAF)272260104
23CHJW1COLUMBIA-CHIEF JOSEPH DAM02-11-2019INFLOW (KAF)205822709876
24CIBW1COLUMBIA-AT INTL BOUNDARY02-11-2019DISCHARGE (KAF)17823MM
25CLFW1NACHES-NEAR CLIFFDEL02-11-2019DISCHARGE (KAF)25729986
26CLUW1CLE ELUM-CLE ELUM LAKE02-11-2019INFLOW (KAF)299290103
27COEI1COEUR D ALENE-COEUR D ALENE LAKE02-11-2019INFLOW (KAF)2507277390
28CSDI1NF PAYETTE-CASCADE DAM02-11-2019INFLOW (KAF)37640493
29DEDI1DEADWOOD-NEAR LOWMAN02-11-2019INFLOW (KAF)799384
30DLGM8CLARK FORK-AT DEER LODGE02-11-2019DISCHARGE (KAF)687887
31DRMM8CLARK FORK-NR DRUMMOND02-11-2019DISCHARGE (KAF)212MM
32DWRI1NF CLEARWATER-DWORSHAK DAM02-11-2019INFLOW (KAF)2406242299
33EASW1YAKIMA-AT EASTON02-11-2019DISCHARGE (KAF)7110171
34EMMI1PAYETTE-NEAR EMMETT02-11-2019DISCHARGE (KAF)781103376
35FCFM8NF FLATHEAD-NEAR COLUMBIA FALLS02-11-2019DISCHARGE (KAF)767102375
36GCDW1COLUMBIA-GRAND COULEE DAM02-11-2019INFLOW (KAF)215752782678
37GIBO3UMATILLA-NEAR GIBBON02-11-2019DISCHARGE (KAF)10285121
38HALI1BIG WOOD-AT HAILEY02-11-2019DISCHARGE (KAF)11414281
39HEII1SNAKE-NEAR HEISE02-11-2019DISCHARGE (KAF)1555170391
40HHWM8SF FLATHEAD-HUNGRY HORSE DAM02-11-2019INFLOW (KAF)1147134186
41HODO3HOOD-NEAR TUCKER BRIDGE02-11-2019DISCHARGE (KAF)26828395
42HOPI1PEND OREILLE-PEND OREILLE LAKE NR HOPE02-11-2019LAKE ELEVATION (FT)MMM
43HOTI1BRUNEAU-NEAR HOT SPRINGS02-11-2019DISCHARGE (KAF)11115572
44HWRI1BIG LOST-AT HOWELL RANCH NEAR CHILLY02-11-2019DISCHARGE (KAF)678182
45IHDW1SNAKE-ICE HARBOR DAM02-11-2019INFLOW (KAF)139001779678
46IPDI1HENRYS FORK-ISLAND PARK DAM02-11-2019INFLOW (KAF)171171100
47JDAO3COLUMBIA-JOHN DAY DAM02-11-2019INFLOW (KAF)398405272876
48JKSW4SNAKE-NEAR JACKSON02-11-2019DISCHARGE (KAF)74982191
49JLKW4SNAKE-JACKSON LAKE AT DAM02-11-2019INFLOW (KAF)41844793
50KADW1KACHESS-KACHESS DAM02-11-2019INFLOW (KAF)929696
51KEDW1YAKIMA-KEECHELUS LAKE02-11-2019INFLOW (KAF)101100100
52KERM8FLATHEAD-KERR DAM02-11-2019INFLOW (KAF)2370369264
53KIOW1YAKIMA-AT KIONA02-11-2019DISCHARGE (KAF)846103182
54LAUW1KETTLE-AT LAURIER02-11-2019DISCHARGE (KAF)998130577
55LEOI1KOOTENAI-AT LEONIA02-11-2019DISCHARGE (KAF)2581333477
56LGDW1SNAKE-LOWER GRANITE DAM02-11-2019INFLOW (KAF)137081766578
57LGSW1SNAKE-LITTLE GOOSE DAM02-11-2019INFLOW (KAF)137081770077
58LLKW1SPOKANE-AT LONGLAKE02-11-2019INFLOW (KAF)2722332782
59LMNW1SNAKE-LOWER MONUMENTAL DAM02-11-2019INFLOW (KAF)139001794677
60LUCI1BOISE-LUCKY PEAK DAM02-11-2019INFLOW (KAF)897MM
61LWRI1LITTLE WOOD-LITTLE WOOD DAM02-11-2019INFLOW (KAF)456371
62LYDM8KOOTENAI-LIBBY DAM02-11-2019INFLOW (KAF)2151314168
63MACI1BIG LOST-MACKAY RESERVOIR NEAR MACKAY02-11-2019INFLOW (KAF)618274
64MAGI1BIG WOOD-MAGIC DAM02-11-2019INFLOW (KAF)13719271
65MCDW1COLUMBIA-MCNARY DAM02-11-2019INFLOW (KAF)375975011175
66MILI1SNAKE-AT MILNER02-11-2019DISCHARGE (KAF)39268457
67MODO3DESCHUTES-AT MOODY NR BIGGS02-11-2019DISCHARGE (KAF)1393156889
68MONO3NF JOHN DAY-AT MONUMENT02-11-2019DISCHARGE (KAF)53462086
69MYKO3MCKAY CREEK-NEAR PILOT ROCK02-11-2019DISCHARGE (KAF)5338139
70NACW1NACHES-NEAR NACHES02-11-2019DISCHARGE (KAF)396376105
71NOXM8CLARK FORK-NOXON RAPIDS DAM02-11-2019INFLOW (KAF)4363688263
72ORFI1CLEARWATER-AT OROFINO02-11-2019DISCHARGE (KAF)3700376098
73OWYO3OWYHEE-OWYHEE DAM02-11-2019INFLOW (KAF)26236372
74PARI1BOISE-NEAR PARMA02-11-2019DISCHARGE (KAF)36941090
75PARW1YAKIMA-NEAR PARKER02-11-2019DISCHARGE (KAF)53065581
76PATW1METHOW-NEAR PATEROS02-11-2019DISCHARGE (KAF)39955672
77PDTO3UMATILLA-AT PENDLETON02-11-2019DISCHARGE (KAF)228194118
78PESW1WENATCHEE-AT PESHASTIN02-11-2019DISCHARGE (KAF)87697190
79PIHI1PORTNEUF-AT POCATELLO02-11-2019DISCHARGE (KAF)8210280
80PITW1KLICKITAT-NEAR PITT02-11-2019DISCHARGE (KAF)43553282
81PLDI1SF SNAKE-PALISADES DAM02-11-2019INFLOW (KAF)1526172189
82PRTI1PRIEST-NEAR PRIEST RIVER02-11-2019DISCHARGE (KAF)56565287
83PRWW1COLUMBIA-PRIEST RAPIDS DAM02-11-2019INFLOW (KAF)228393023876
84RCCM8ROCK CREEK-NEAR CLINTON02-11-2019DISCHARGE (KAF)14316586
85REXI1HENRYS FORK-AT REXBURG02-11-2019DISCHARGE (KAF)62566994
86RIDI1WILLOW CREEK-RIRIE DAM02-11-2019INFLOW (KAF)5542133
87RILW1TIETON-RIMROCK LAKE NEAR RIMROCK02-11-2019INFLOW (KAF)11914582
88RRHW1COLUMBIA-ROCKY REACH DAM02-11-2019INFLOW (KAF)219682915175
89SATI1ST MARIES-NEAR SANTA02-11-2019DISCHARGE (KAF)15015099
90SERO3JOHN DAY-AT SERVICE CK02-11-2019DISCHARGE (KAF)73289882
91SHYI1SNAKE-NEAR SHELLEY02-11-2019DISCHARGE (KAF)1443176882
92SIFI1SNAKE-AB EAGLE ROCK NR IDAHO FALLS02-11-2019DISCHARGE (KAF)1560175489
93SJMI1ST JOE-AT ST MARIES02-11-2019STAGE (FT)MMM
94SNAI1SNAKE-AT BLACKFOOT02-11-2019DISCHARGE (KAF)1182153677
95SPDI1CLEARWATER-AT SPALDING02-11-2019DISCHARGE (KAF)5251596288
96SPOW1SPOKANE-AT SPOKANE02-11-2019DISCHARGE (KAF)2359MM
97SRGM8CLARK FORK-AT ST REGIS02-11-2019DISCHARGE (KAF)2147257483
98STRM8ST. REGIS-NEAR ST. REGIS02-11-2019DISCHARGE (KAF)16522374
99SWAI1SNAKE-BELOW SWAN FALLS02-11-2019DISCHARGE (KAF)2101271977
100TCHW1WALLA WALLA-NEAR TOUCHET02-11-2019DISCHARGE (KAF)217204107
101TDAO3COLUMBIA-THE DALLES DAM02-11-2019INFLOW (KAF)402015210177
102TEAI1TETON-NEAR ST. ANTHONY02-11-2019DISCHARGE (KAF)20822493
103TNAW1TEANAWAY-BELOW FORKS02-11-2019DISCHARGE (KAF)144131110
104TONW1OKANOGAN-NEAR TONASKET02-11-2019DISCHARGE (KAF)711101670
105TRYO3GRANDE RONDE-TROY02-11-2019DISCHARGE (KAF)1091118392
106UMAO3UMATILLA-NEAR UMATILLA02-11-2019DISCHARGE (KAF)225158142
107UMTW1YAKIMA-AT UMTANUM02-11-2019DISCHARGE (KAF)56660494
108UNDW1WHITE SALMON-NEAR UNDERWOOD02-11-2019DISCHARGE (KAF)29436082
109VALO3MALHEUR-NEAR VALE02-11-2019DISCHARGE (KAF)556485
110WANW1COLUMBIA-WANAPUM DAM02-11-2019INFLOW (KAF)228462976177
111WEII1SNAKE-AT WEISER02-11-2019DISCHARGE (KAF)4050530476
112WELW1COLUMBIA-WELLS DAM02-11-2019INFLOW (KAF)216712873675
113WGCM8MF FLATHEAD-NEAR WEST GLACIER02-11-2019DISCHARGE (KAF)81498483
114WHBI1SALMON-AT WHITEBIRD02-11-2019DISCHARGE (KAF)3045384979
115WRMO3MALHEUR-WARM SPRINGS DAM02-11-2019INFLOW (KAF)8374112
116WSRI1WEISER-NEAR WEISER02-11-2019DISCHARGE (KAF)519431120